AE5HO Weather Reports


Display with metric or nautical units.
time (UTC)temp
F
wind
direction
speed
MPH
gust
MPH
rain 1hr
in
rain 24hr
in
rain mn
in
humidity
%
barometer
mb
20260504030038 76 180 0.0 0.0 0.00 0.00 0.00 55 1015.8
20260504025536 76 180 0.0 0.0 0.00 0.00 0.00 55 1015.8
20260504025032 76 180 0.0 0.0 0.00 0.00 0.00 54 1015.8
20260504024529 76 180 0.0 0.0 0.00 0.00 0.00 54 1015.8
20260504024026 76 180 0.0 0.0 0.00 0.00 0.00 54 1015.8
20260504023522 76 180 0.0 0.0 0.00 0.00 0.00 54 1015.8
20260504023018 76 180 0.0 0.0 0.00 0.00 0.00 51 1015.8
20260504022514 76 180 0.0 0.0 0.00 0.00 0.00 53 1015.7
20260504022011 76 180 0.0 0.0 0.00 0.00 0.00 55 1015.7
20260504021509 76 180 0.0 0.0 0.00 0.00 0.00 55 1015.9
20260504021006 76 180 0.0 0.0 0.00 0.00 0.00 55 1016.0
20260504020502 76 180 0.0 0.0 0.00 0.00 0.00 55 1015.8
20260504015959 76 180 0.0 0.0 0.00 0.00 0.00 55 1015.5
20260504015455 76 180 0.0 0.0 0.00 0.00 0.00 55 1015.7
20260504014951 76 180 0.0 0.0 0.00 0.00 0.00 55 1015.6
20260504014447 76 180 0.0 0.0 0.00 0.00 0.00 55 1015.7
20260504013944 76 180 0.0 0.0 0.00 0.00 0.00 55 1015.5
20260504013443 76 180 0.0 0.0 0.00 0.00 0.00 55 1015.6
20260504012938 76 180 0.0 0.0 0.00 0.00 0.00 55 1015.6
20260504012437 76 180 0.0 0.0 0.00 0.00 0.00 55 1015.6
20260504011934 76 180 0.0 0.0 0.00 0.00 0.00 55 1015.6
20260504011431 76 180 0.0 0.0 0.00 0.00 0.00 55 1015.5
20260504010926 77 180 0.0 0.0 0.00 0.00 0.00 55 1015.4
20260504010422 76 180 0.0 0.0 0.00 0.00 0.00 55 1015.3
20260504005919 76 180 0.0 0.0 0.00 0.00 0.00 55 1015.5
20260504005415 76 180 0.0 0.0 0.00 0.00 0.00 54 1015.3
20260504004913 76 180 0.0 0.0 0.00 0.00 0.00 54 1015.3
20260504004411 76 180 0.0 0.0 0.00 0.00 0.00 54 1015.3
20260504003908 76 180 0.0 0.0 0.00 0.00 0.00 54 1015.3
20260504003404 76 180 0.0 0.0 0.00 0.00 0.00 54 1015.4
20260504002900 76 180 0.0 0.0 0.00 0.00 0.00 55 1015.3
20260504002358 76 180 0.0 0.0 0.00 0.00 0.00 55 1015.2
20260504001855 76 165 0.0 0.0 0.00 0.00 0.00 55 1015.3
20260504001352 76 165 0.0 0.0 0.00 0.00 0.00 56 1015.2
20260504000849 76 165 0.0 0.0 0.00 0.00 0.00 56 1015.4
20260504000346 76 165 0.0 0.0 0.00 0.00 0.00 56 1015.3
20260503235844 76 165 0.0 0.0 0.00 0.00 0.00 56 1015.4
20260503235341 76 165 0.0 0.0 0.00 0.00 0.00 56 1015.5
20260503234838 76 165 0.0 0.0 0.00 0.00 0.00 56 1015.3
20260503234336 76 165 0.0 0.0 0.00 0.00 0.00 56 1015.6
20260503233834 76 165 0.0 0.0 0.00 0.00 0.00 56 1015.5
20260503233329 76 165 0.0 0.0 0.00 0.00 0.00 56 1015.6
20260503232826 76 165 0.0 0.0 0.00 0.00 0.00 56 1015.8
20260503232323 76 165 0.0 0.0 0.00 0.00 0.00 56 1015.7
20260503231821 76 165 0.0 0.0 0.00 0.00 0.00 56 1015.9
20260503231318 76 165 0.0 0.0 0.00 0.00 0.00 57 1016.0
20260503230814 76 165 0.0 0.0 0.00 0.00 0.00 54 1015.9
20260503230311 76 165 0.0 0.0 0.00 0.00 0.00 57 1015.8
20260503225809 76 165 0.0 0.0 0.00 0.00 0.00 57 1015.9
20260503225305 76 165 0.0 0.0 0.00 0.00 0.00 57 1015.8
20260503224801 76 165 0.0 0.0 0.00 0.00 0.00 57 1015.7
20260503224258 76 165 0.0 0.0 0.00 0.00 0.00 57 1016.0
20260503223756 76 165 0.0 0.0 0.00 0.00 0.00 57 1015.9
20260503223253 76 165 0.0 0.0 0.00 0.00 0.00 57 1015.9
20260503222749 76 165 0.0 0.0 0.00 0.00 0.00 57 1016.0
20260503222247 76 165 0.0 0.0 0.00 0.00 0.00 57 1016.0
20260503221746 76 165 0.0 0.0 0.00 0.00 0.00 57 1016.0
20260503221243 76 165 0.0 0.0 0.00 0.00 0.00 57 1016.2
20260503220739 76 165 0.0 0.0 0.00 0.00 0.00 57 1016.2
20260503220237 76 165 0.0 0.0 0.00 0.00 0.00 57 1016.3
20260503215733 76 165 0.0 0.0 0.00 0.00 0.00 57 1016.3
20260503215230 76 165 0.0 0.0 0.00 0.00 0.00 57 1016.3
20260503214728 76 165 0.0 0.0 0.00 0.00 0.00 57 1016.3
20260503214225 76 165 0.0 0.0 0.00 0.00 0.00 57 1016.5
20260503213723 76 165 0.0 0.0 0.00 0.00 0.00 57 1016.7
20260503213220 76 165 0.0 0.0 0.00 0.00 0.00 57 1016.5
20260503212717 76 165 0.0 0.0 0.00 0.00 0.00 57 1016.9
20260503212214 76 180 0.0 0.0 0.00 0.00 0.00 57 1016.7
20260503211712 76 180 0.0 0.0 0.00 0.00 0.00 57 1016.9
20260503211208 76 180 0.0 0.0 0.00 0.00 0.00 57 1017.0
20260503210704 76 180 0.0 0.0 0.00 0.00 0.00 57 1017.1
20260503210201 76 180 0.0 0.0 0.00 0.00 0.00 57 1017.1
20260503205656 76 180 0.0 0.0 0.00 0.00 0.00 57 1017.1
20260503205152 76 180 0.0 0.0 0.00 0.00 0.00 57 1017.3
20260503204649 76 180 0.0 0.0 0.00 0.00 0.00 57 1017.2
20260503204147 76 180 0.0 0.0 0.00 0.00 0.00 57 1017.5
20260503203644 76 180 0.0 0.0 0.00 0.00 0.00 57 1017.5
20260503203141 76 180 0.0 0.0 0.00 0.00 0.00 57 1017.7
20260503202638 75 180 0.0 0.0 0.00 0.00 0.00 57 1017.9
20260503202137 75 180 0.0 0.0 0.00 0.00 0.00 57 1017.9
20260503201634 75 180 0.0 0.0 0.00 0.00 0.00 57 1018.1
20260503201131 75 180 0.0 0.0 0.00 0.00 0.00 57 1017.9
20260503200627 75 180 0.0 0.0 0.00 0.00 0.00 57 1018.0
20260503200124 75 180 0.0 0.0 0.00 0.00 0.00 57 1018.1
20260503195621 75 180 0.0 0.0 0.00 0.00 0.00 58 1018.2
20260503195118 75 180 0.0 0.0 0.00 0.00 0.00 58 1018.4
20260503194615 75 180 0.0 0.0 0.00 0.00 0.00 58 1018.4
20260503194110 75 180 0.0 0.0 0.00 0.00 0.00 58 1018.3
20260503193607 75 180 0.0 0.0 0.00 0.00 0.00 58 1018.6
20260503193102 75 180 0.0 0.0 0.00 0.00 0.00 58 1018.6
20260503192558 75 180 0.0 0.0 0.00 0.00 0.00 58 1018.7
20260503192054 75 180 0.0 0.0 0.00 0.00 0.00 58 1018.9
20260503191551 75 180 0.0 0.0 0.00 0.00 0.00 58 1018.9
20260503191048 75 180 0.0 0.0 0.00 0.00 0.00 58 1019.1
20260503190545 75 180 0.0 0.0 0.00 0.00 0.00 57 1019.1
20260503190042 75 180 0.0 0.0 0.00 0.00 0.00 57 1019.1
20260503185539 75 180 0.0 0.0 0.00 0.00 0.00 57 1019.2
20260503185038 75 180 0.0 0.0 0.00 0.00 0.00 57 1019.2
20260503184535 75 180 0.0 0.0 0.00 0.00 0.00 57 1019.2
20260503184032 75 180 0.0 0.0 0.00 0.00 0.00 57 1019.5
20260503183528 75 180 0.0 0.0 0.00 0.00 0.00 57 1019.4
20260503183025 75 180 0.0 0.0 0.00 0.00 0.00 57 1019.7
20260503182524 75 180 0.0 0.0 0.00 0.00 0.00 57 1019.7
20260503182021 75 180 0.0 0.0 0.00 0.00 0.00 57 1019.8
20260503181518 75 180 0.0 0.0 0.00 0.00 0.00 57 1019.8
20260503181014 75 180 0.0 0.0 0.00 0.00 0.00 57 1019.9
20260503180512 75 180 0.0 0.0 0.00 0.00 0.00 57 1020.2
20260503180009 75 180 0.0 0.0 0.00 0.00 0.00 57 1020.1
20260503175506 75 180 0.0 0.0 0.00 0.00 0.00 57 1020.2
20260503175003 75 180 0.0 0.0 0.00 0.00 0.00 57 1020.3
20260503174501 75 180 0.0 0.0 0.00 0.00 0.00 57 1020.6
20260503173956 74 180 0.0 0.0 0.00 0.00 0.00 57 1020.7
20260503173452 74 180 0.0 0.0 0.00 0.00 0.00 57 1020.8
20260503172948 74 180 0.0 0.0 0.00 0.00 0.00 57 1020.6
20260503172446 74 180 0.0 0.0 0.00 0.00 0.00 57 1020.6
20260503171942 74 172 0.0 0.0 0.00 0.00 0.00 57 1020.7
20260503171439 74 172 0.0 0.0 0.00 0.00 0.00 57 1020.8
20260503170937 74 172 0.0 0.0 0.00 0.00 0.00 57 1021.0
20260503170433 74 172 0.0 0.0 0.00 0.00 0.00 57 1021.0
20260503150825 73 172 0.0 0.0 0.00 0.00 0.00 57 1021.5
20260503150321 73 172 0.0 0.0 0.00 0.00 0.00 57 1021.4
20260503140246 73 172 0.0 0.0 0.00 0.00 0.00 56 1021.3
20260503131215 73 172 0.0 0.0 0.00 0.00 0.00 56 1021.0
20260503130713 73 172 0.0 0.0 0.00 0.00 0.00 56 1021.0
20260503130210 73 172 0.0 0.0 0.00 0.00 0.00 56 1021.2
20260503120135 73 172 0.0 0.0 0.00 0.00 0.00 57 1020.7
20260503110603 73 172 0.0 0.0 0.00 0.00 0.00 57 1020.1
20260503090450 74 180 0.0 0.0 0.00 0.00 0.00 58 1020.3
20260503081416 74 180 0.0 0.0 0.00 0.00 0.00 58 1019.9
20260503080914 74 180 0.0 0.0 0.00 0.00 0.00 58 1020.0
20260503080410 74 180 0.0 0.0 0.00 0.00 0.00 58 1020.0
20260503072846 74 180 0.0 0.0 0.00 0.00 0.00 59 1020.2
20260503072343 74 180 0.0 0.0 0.00 0.00 0.00 59 1020.4
20260503071840 74 180 0.0 0.0 0.00 0.00 0.00 59 1020.4
20260503071337 74 180 0.0 0.0 0.00 0.00 0.00 59 1020.3
20260503070833 74 180 0.0 0.0 0.00 0.00 0.00 59 1020.5
20260503070332 74 180 0.0 0.0 0.00 0.00 0.00 59 1020.5
20260503060303 75 180 0.0 0.0 0.00 0.00 0.00 59 1020.3
20260503054749 75 180 0.0 0.0 0.00 0.00 0.00 59 1020.2
20260503054246 75 180 0.0 0.0 0.00 0.00 0.00 59 1020.1
20260503053744 75 180 0.0 0.0 0.00 0.00 0.00 59 1020.1
20260503053243 75 180 0.0 0.0 0.00 0.00 0.00 59 1020.3
20260503052738 75 180 0.0 0.0 0.00 0.00 0.00 59 1020.1
20260503052235 75 180 0.0 0.0 0.00 0.00 0.00 59 1020.2
20260503051730 75 180 0.0 0.0 0.00 0.00 0.00 59 1020.0
20260503051228 75 180 0.0 0.0 0.00 0.00 0.00 59 1020.0
20260503050724 75 180 0.0 0.0 0.00 0.00 0.00 60 1019.9
20260503050221 75 180 0.0 0.0 0.00 0.00 0.00 60 1020.1
20260503045718 75 180 0.0 0.0 0.00 0.00 0.00 60 1020.1
20260503045216 75 180 0.0 0.0 0.00 0.00 0.00 60 1020.0
20260503044713 75 180 0.0 0.0 0.00 0.00 0.00 60 1019.9
20260503044210 75 180 0.0 0.0 0.00 0.00 0.00 60 1019.8
20260503043706 75 180 0.0 0.0 0.00 0.00 0.00 60 1019.7
20260503043204 75 180 0.0 0.0 0.00 0.00 0.00 60 1019.9
20260503042700 75 180 0.0 0.0 0.00 0.00 0.00 60 1019.9
20260503042156 75 180 0.0 0.0 0.00 0.00 0.00 60 1019.7
20260503041652 75 180 0.0 0.0 0.00 0.00 0.00 60 1019.9
20260503041150 75 180 0.0 0.0 0.00 0.00 0.00 60 1019.9
20260503040648 75 180 0.0 0.0 0.00 0.00 0.00 60 1020.0
20260503040145 75 180 0.0 0.0 0.00 0.00 0.00 60 1020.2
20260503035641 75 180 0.0 0.0 0.00 0.00 0.00 60 1020.1
20260503035139 75 180 0.0 0.0 0.00 0.00 0.00 60 1020.3
20260503034637 75 180 0.0 0.0 0.00 0.00 0.00 60 1020.0
20260503034134 75 180 0.0 0.0 0.00 0.00 0.00 60 1019.9
20260503033630 75 180 0.0 0.0 0.00 0.00 0.00 60 1019.9
20260503033128 75 180 0.0 0.0 0.00 0.00 0.00 60 1019.9
20260503032626 75 180 0.0 0.0 0.00 0.00 0.00 60 1019.8
20260503032125 75 180 0.0 0.0 0.00 0.00 0.00 60 1019.9
20260503031622 75 180 0.0 0.0 0.00 0.00 0.00 60 1019.8
20260503031119 75 180 0.0 0.0 0.00 0.00 0.00 60 1019.6
20260503030615 75 180 0.0 0.0 0.00 0.00 0.00 60 1019.6